Date String (YYYY-MM-DD hh:mm:ss) UTC,Instrument flags,absolute air pressure of the measurement (hPa),sample flow rate (lpm),inlet stack bypass flow (lpm),air temperature of the measurement (°C),ambient temperature measured by the external sensor (°C),aerosol sample conditioner tube jacket temperature (°C),OPC LED temperature (°C),internal box temperature (°C),relative humidity of the measurement (%),span deviation,mass concentration of particles derived from Lorenz-Mie calculation of OPC scattering (μg/m³),mass concentration of particles derived from Lorenz-Mie calculation of OPC scattering (μg/m³),mass concentration of particles derived from Lorenz-Mie calculation of OPC scattering (μg/m³)
DateTimeUTC,F1_M11,P_M11,Q1_M11,Q2_M11,T1_M11,T2_M11,T3_M11,T4_M11,T5_M11,U1_M11,ZSPAN_M11,X2_M11,X0_M11,X1_M11
2023-09-05 16:00:00,SystemResetWarning,0833.2,4.99,000.00,028.4,027.3,000.0,036.7,030.1,23.9,0000.0,0002.28,0007.01,0001.56
2023-09-05 16:01:00,SystemResetWarning,0833.2,4.99,000.00,028.4,027.4,000.0,036.7,030.1,23.4,0000.0,0002.30,0006.19,0001.57
2023-09-05 16:02:00,SystemResetWarning,0833.2,5.00,000.00,028.5,027.5,000.0,036.7,030.2,23.8,0000.0,0002.31,0005.38,0001.58
2023-09-05 16:03:00,SystemResetWarning,0833.3,5.00,000.00,028.5,027.5,000.0,036.8,030.2,23.9,0000.0,0002.27,0005.23,0001.58
2023-09-05 16:04:00,SystemResetWarning,0833.2,5.00,000.00,028.5,027.6,000.0,036.8,030.2,23.8,0000.0,0002.29,0005.10,0001.60
2023-09-05 16:05:00,SystemResetWarning,0833.2,5.00,000.00,028.6,027.3,000.0,036.8,030.2,23.2,0000.0,0002.35,0004.82,0001.62
2023-09-05 16:06:00,SystemResetWarning,0833.3,4.99,000.00,028.5,025.9,000.0,036.7,029.7,23.7,0000.0,0002.33,0004.59,0001.63
2023-09-05 16:07:00,SystemResetWarning,0833.2,5.01,000.00,028.3,024.6,000.0,036.7,029.3,24.2,0000.0,0002.35,0004.65,0001.64
2023-09-05 16:08:00,SystemResetWarning,0833.3,5.01,000.00,028.2,024.6,000.0,036.6,029.4,24.1,0000.0,0002.41,0005.45,0001.66
2023-09-05 16:09:00,SystemResetWarning,0833.3,5.00,000.00,028.2,024.9,000.0,036.6,029.4,23.4,0000.0,0002.40,0005.57,0001.67
2023-09-05 16:10:00,SystemResetWarning,0833.2,4.99,000.00,028.1,025.3,000.0,036.6,029.5,23.3,0000.0,0002.43,0006.56,0001.68
2023-09-05 16:11:00,SystemResetWarning,0833.3,5.01,000.00,028.1,025.7,000.0,036.6,029.6,23.6,0000.0,0002.45,0006.64,0001.69
2023-09-05 16:12:00,SystemResetWarning,0833.3,5.00,000.00,028.1,026.0,000.0,036.6,029.6,23.8,0000.0,0002.44,0007.05,0001.69
2023-09-05 16:13:00,SystemResetWarning,0833.4,5.00,000.00,028.2,026.3,000.0,036.6,029.7,23.8,0000.0,0002.46,0007.30,0001.70
2023-09-05 16:14:00,SystemResetWarning,0833.4,5.00,000.00,028.2,026.5,000.0,036.6,029.8,23.6,0000.0,0002.49,0007.46,0001.71
2023-09-05 16:15:00,SystemResetWarning,0833.4,5.00,000.00,028.2,026.7,000.0,036.6,029.8,23.5,0000.0,0002.52,0007.79,0001.72
2023-09-05 16:16:00,SystemResetWarning,0833.4,5.00,000.00,028.2,026.9,000.0,036.6,029.9,23.4,0000.0,0002.53,0007.82,0001.73
2023-09-05 16:17:00,SystemResetWarning,0833.4,5.00,000.00,028.3,027.0,000.0,036.6,029.9,23.6,0000.0,0002.57,0008.08,0001.74
2023-09-05 16:18:00,SystemResetWarning,0833.4,5.00,000.00,028.3,027.1,000.0,036.7,030.0,23.5,0000.0,0002.61,0009.45,0001.74
2023-09-05 16:19:00,SystemResetWarning,0833.4,5.00,000.00,028.4,027.3,000.0,036.7,030.0,23.6,0000.0,0002.60,0009.78,0001.75
2023-09-05 16:20:00,SystemResetWarning,0833.4,4.99,000.00,028.4,027.3,000.0,036.7,030.1,24.0,0000.0,0002.60,0009.64,0001.75
2023-09-05 16:21:00,SystemResetWarning,0833.4,4.99,000.00,028.4,027.4,000.0,036.7,030.1,24.3,0000.0,0002.57,0009.23,0001.76
2023-09-05 16:22:00,SystemResetWarning,0833.4,5.00,000.00,028.5,027.3,000.0,036.7,030.1,23.9,0000.0,0002.57,0010.23,0001.75
2023-09-05 16:23:00,SystemResetWarning,0833.4,5.00,000.00,028.4,025.8,000.0,036.7,029.7,23.4,0000.0,0002.56,0010.19,0001.75
2023-09-05 16:24:00,SystemResetWarning,0833.4,5.00,000.00,028.3,024.5,000.0,036.6,029.3,23.7,0000.0,0002.55,0010.05,0001.75
2023-09-05 16:25:00,SystemResetWarning,0833.4,5.01,000.00,028.2,024.5,000.0,036.5,029.3,23.4,0000.0,0002.58,0010.40,0001.76
2023-09-05 16:26:00,SystemResetWarning,0833.4,5.02,000.00,028.1,024.8,000.0,036.5,029.2,23.8,0000.0,0002.61,0010.58,0001.76
2023-09-05 16:27:00,SystemResetWarning,0833.4,5.00,000.00,028.0,025.2,000.0,036.5,029.3,24.3,0000.0,0002.62,0011.24,0001.76
2023-09-05 16:28:00,SystemResetWarning,0833.4,5.00,000.00,028.0,025.5,000.0,036.5,029.4,25.0,0000.0,0002.61,0011.20,0001.75
2023-09-05 16:29:00,SystemResetWarning,0833.4,5.00,000.00,028.0,025.9,000.0,036.5,029.5,24.3,0000.0,0002.58,0010.71,0001.75
2023-09-05 16:30:00,SystemResetWarning,0833.4,5.00,000.00,028.1,026.2,000.0,036.5,029.6,23.8,0000.0,0002.55,0010.75,0001.75
2023-09-05 16:31:00,SystemResetWarning,0833.4,5.00,000.00,028.1,026.4,000.0,036.5,029.7,24.0,0000.0,0002.59,0010.96,0001.76
2023-09-05 16:32:00,SystemResetWarning,0833.4,5.00,000.00,028.1,026.6,000.0,036.5,029.7,24.4,0000.0,0002.60,0011.18,0001.76
2023-09-05 16:33:00,SystemResetWarning,0833.4,5.00,000.00,028.2,026.8,000.0,036.6,029.8,24.0,0000.0,0002.64,0011.01,0001.77
2023-09-05 16:34:00,SystemResetWarning,0833.5,5.00,000.00,028.2,026.9,000.0,036.6,029.9,23.7,0000.0,0002.68,0010.77,0001.78
2023-09-05 16:35:00,SystemResetWarning,0833.5,5.00,000.00,028.2,027.1,000.0,036.6,029.9,23.7,0000.0,0002.68,0011.13,0001.78
2023-09-05 16:36:00,SystemResetWarning,0833.5,5.00,000.00,028.3,027.2,000.0,036.6,030.0,23.5,0000.0,0002.65,0011.03,0001.78
2023-09-05 16:37:00,SystemResetWarning,0833.5,5.00,000.00,028.3,027.2,000.0,036.6,030.0,23.5,0000.0,0002.63,0011.44,0001.79
2023-09-05 16:38:00,SystemResetWarning,0833.5,5.00,000.00,028.4,027.3,000.0,036.6,030.1,23.5,0000.0,0002.62,0011.53,0001.80
2023-09-05 16:39:00,SystemResetWarning,0833.4,5.00,000.00,028.4,027.4,000.0,036.7,030.1,23.6,0000.0,0002.65,0011.55,0001.82
2023-09-05 16:40:00,SystemResetWarning,0833.4,4.99,000.00,028.4,027.5,000.0,036.7,030.1,23.6,0000.0,0002.65,0011.29,0001.82
2023-09-05 16:41:00,SystemResetWarning,0833.5,4.99,000.00,028.5,026.9,000.0,036.7,030.0,23.5,0000.0,0002.65,0010.56,0001.83
2023-09-05 16:42:00,SystemResetWarning,0833.5,5.00,000.00,028.3,025.3,000.0,036.6,029.4,23.2,0000.0,0002.66,0010.54,0001.84
2023-09-05 16:43:00,SystemResetWarning,0833.5,5.01,000.00,028.2,024.5,000.0,036.5,029.2,23.5,0000.0,0002.68,0010.43,0001.84
2023-09-05 16:44:00,SystemResetWarning,0833.4,5.01,000.00,028.1,024.6,000.0,036.5,029.2,24.2,0000.0,0002.69,0009.86,0001.83
2023-09-05 16:45:00,SystemResetWarning,0833.4,4.99,000.00,028.0,024.9,000.0,036.5,029.2,24.2,0000.0,0002.69,0009.98,0001.84
2023-09-05 16:46:00,SystemResetWarning,0833.4,4.99,000.00,028.0,025.3,000.0,036.5,029.3,24.1,0000.0,0002.69,0009.53,0001.87
2023-09-05 16:47:00,SystemResetWarning,0833.5,5.00,000.00,028.0,025.7,000.0,036.5,029.5,24.3,0000.0,0002.78,0009.45,0001.89
2023-09-05 16:48:00,SystemResetWarning,0833.5,5.01,000.00,028.0,026.0,000.0,036.5,029.5,24.6,0000.0,0002.82,0008.64,0001.90
2023-09-05 16:49:00,SystemResetWarning,0833.6,5.00,000.00,028.1,026.3,000.0,036.5,029.6,24.0,0000.0,0002.79,0007.87,0001.92
2023-09-05 16:50:00,SystemResetWarning,0833.6,4.99,000.00,028.1,026.5,000.0,036.5,029.7,23.9,0000.0,0002.75,0008.17,0001.93
2023-09-05 16:51:00,SystemResetWarning,0833.6,5.00,000.00,028.1,026.7,000.0,036.5,029.8,24.1,0000.0,0002.77,0008.33,0001.94
2023-09-05 16:52:00,SystemResetWarning,0833.5,5.00,000.00,028.2,026.9,000.0,036.5,029.8,23.8,0000.0,0002.81,0007.83,0001.97
2023-09-05 16:53:00,SystemResetWarning,0833.6,5.00,000.00,028.2,027.0,000.0,036.5,029.9,24.0,0000.0,0002.81,0007.90,0001.97
2023-09-05 16:54:00,SystemResetWarning,0833.6,5.01,000.00,028.2,027.1,000.0,036.6,029.9,23.1,0000.0,0002.79,0007.75,0001.98
2023-09-05 16:55:00,SystemResetWarning,0833.6,5.01,000.00,028.3,027.2,000.0,036.6,030.0,23.1,0000.0,0002.77,0007.62,0002.00
2023-09-05 16:56:00,SystemResetWarning,0833.6,4.99,000.00,028.3,027.3,000.0,036.6,030.0,23.4,0000.0,0002.74,0008.57,0002.00
2023-09-05 16:57:00,SystemResetWarning,0833.6,4.99,000.00,028.4,027.4,000.0,036.6,030.0,23.7,0000.0,0002.78,0009.95,0001.99
2023-09-05 16:58:00,SystemResetWarning,0833.6,5.00,000.00,028.4,027.0,000.0,036.6,030.0,23.8,0000.0,0002.80,0010.23,0001.97
2023-09-05 16:59:00,SystemResetWarning,0833.6,5.00,000.00,028.3,025.6,000.0,036.5,029.6,23.2,0000.0,0002.81,0010.89,0001.98
